,,Stat6,,Stat2,,Stat8,,Stat9,,Stat10,,Wind1,,Wind1,
time,status,PA1M_AVG,status,PR1M_SUM,status,RH1M_AVG,status,SR1M_AVG,status,TA1M_AVG,status,W1dAve1m,status,W1sAve1m,
2005-06-19, 00:00:00,VALID,916.891,VALID,0,VALID,89.6087,VALID,-0.0849042,VALID,20.2058,VALID,172,VALID,0.835392,
2005-06-19, 00:01:00,VALID,916.938,VALID,0,VALID,89.6265,VALID,-0.0679233,VALID,20.2316,VALID,197,VALID,0.721726,
2005-06-19, 00:02:00,VALID,916.937,VALID,0,VALID,89.4841,VALID,-0.0849042,VALID,20.2612,VALID,177,VALID,0.323153,
2005-06-19, 00:03:00,VALID,916.973,VALID,0,VALID,89.3913,VALID,-0.0849042,VALID,20.2545,VALID,143,VALID,0.553125,
2005-06-19, 00:04:00,VALID,916.978,VALID,0,VALID,88.8991,VALID,-0.0849042,VALID,20.3476,VALID,253,VALID,1.54155,
2005-06-19, 00:05:00,VALID,917.007,VALID,0,VALID,88.1209,VALID,-0.101885,VALID,20.5223,VALID,214,VALID,0.807813,
2005-06-19, 00:06:00,VALID,917.015,VALID,0,VALID,87.6733,VALID,-0.101885,VALID,20.6326,VALID,251,VALID,0.731712,
2005-06-19, 00:07:00,VALID,916.994,VALID,0,VALID,87.1685,VALID,-0.101885,VALID,20.7193,VALID,245,VALID,1.09986,
2005-06-19, 00:08:00,VALID,917.004,VALID,0,VALID,86.4361,VALID,-0.0679233,VALID,20.852,VALID,257,VALID,1.2202,
2005-06-19, 00:09:00,VALID,917.013,VALID,0,VALID,86.0355,VALID,-0.101885,VALID,20.9422,VALID,245,VALID,1.34728,
2005-06-19, 00:10:00,VALID,917.006,VALID,0,VALID,85.8053,VALID,-0.101885,VALID,20.9844,VALID,240,VALID,0.658537,
2005-06-19, 00:11:00,VALID,917.014,VALID,0,VALID,85.7354,VALID,-0.0849042,VALID,21.0006,VALID,260,VALID,0.50109,
2005-06-19, 00:12:00,VALID,916.997,VALID,0,VALID,85.6998,VALID,-0.101885,VALID,20.9912,VALID,209,VALID,0.715021,
2005-06-19, 00:13:00,VALID,917.018,VALID,0,VALID,85.7646,VALID,-0.101885,VALID,20.9715,VALID,285,VALID,0.725977,
2005-06-19, 00:14:00,VALID,917.048,VALID,0,VALID,85.9198,VALID,-0.0679233,VALID,20.933,VALID,143,VALID,0.479421,
2005-06-19, 00:15:00,VALID,917.072,VALID,0,VALID,86.169,VALID,-0.101885,VALID,20.894,VALID,50,VALID,0.228646,
2005-06-19, 00:16:00,VALID,917.095,VALID,0,VALID,86.3687,VALID,-0.0339617,VALID,20.8447,VALID,4,VALID,0.106944,
2005-06-19, 00:17:00,VALID,917.088,VALID,0,VALID,86.7222,VALID,0,VALID,20.7891,VALID,65,VALID,0.641197,
2005-06-19, 00:18:00,VALID,917.1,VALID,0,VALID,87.0261,VALID,-0.0169808,VALID,20.7277,VALID,5,VALID,0.412016,
2005-06-19, 00:19:00,VALID,917.081,VALID,0,VALID,87.3135,VALID,-0.0169808,VALID,20.6765,VALID,102,VALID,0.537972,
2005-06-19, 00:20:00,VALID,917.055,VALID,0,VALID,87.1825,VALID,0,VALID,20.6663,VALID,244,VALID,1.125,
2005-06-19, 00:21:00,VALID,917.04,VALID,0,VALID,87.096,VALID,0,VALID,20.6989,VALID,306,VALID,0.887153,
2005-06-19, 00:22:00,VALID,917.039,VALID,0,VALID,87.1545,VALID,0,VALID,20.7053,VALID,291,VALID,0.596168,
2005-06-19, 00:23:00,VALID,916.997,VALID,0,VALID,87.171,VALID,0,VALID,20.7026,VALID,9,VALID,0.697409,
2005-06-19, 00:24:00,VALID,916.957,VALID,0,VALID,87.1405,VALID,0,VALID,20.7086,VALID,330,VALID,1.17224,
2005-06-19, 00:25:00,VALID,916.941,VALID,0,VALID,87.2117,VALID,0,VALID,20.7153,VALID,327,VALID,1.05977,
2005-06-19, 00:26:00,VALID,916.892,VALID,0,VALID,87.2372,VALID,0,VALID,20.7083,VALID,292,VALID,1.19599,
2005-06-19, 00:27:00,VALID,916.862,VALID,0,VALID,87.0833,VALID,0,VALID,20.7635,VALID,340,VALID,1.30915,
2005-06-19, 00:28:00,VALID,916.849,VALID,0,VALID,86.8786,VALID,0,VALID,20.763,VALID,346,VALID,1.50254,
2005-06-19, 00:29:00,VALID,916.84,VALID,0,VALID,87.0312,VALID,0.0339617,VALID,20.7403,VALID,22,VALID,0.818714,
2005-06-19, 00:30:00,VALID,916.838,VALID,0,VALID,87.1011,VALID,0.0169808,VALID,20.7113,VALID,343,VALID,0.830273,
2005-06-19, 00:31:00,VALID,916.823,VALID,0,VALID,87.0057,VALID,0,VALID,20.7436,VALID,221,VALID,1.23247,
2005-06-19, 00:32:00,VALID,916.803,VALID,0,VALID,86.8341,VALID,0.0169808,VALID,20.7468,VALID,268,VALID,1.30114,
2005-06-19, 00:33:00,VALID,916.808,VALID,0,VALID,86.8659,VALID,0.0169808,VALID,20.7856,VALID,220,VALID,0.656929,
2005-06-19, 00:34:00,VALID,916.77,VALID,0,VALID,86.8493,VALID,0.0169808,VALID,20.8109,VALID,357,VALID,0.859375,
2005-06-19, 00:35:00,VALID,916.767,VALID,0,VALID,86.876,VALID,0.0169808,VALID,20.8405,VALID,11,VALID,0.617188,
2005-06-19, 00:36:00,VALID,916.776,VALID,0,VALID,87.035,VALID,0,VALID,20.8246,VALID,85,VALID,0.882626,
2005-06-19, 00:37:00,VALID,916.785,VALID,0,VALID,87.288,VALID,-0.0169808,VALID,20.8117,VALID,84,VALID,1.17305,
2005-06-19, 00:38:00,VALID,916.767,VALID,0,VALID,87.5614,VALID,0,VALID,20.7562,VALID,17,VALID,0.754616,
2005-06-19, 00:39:00,VALID,916.76,VALID,0,VALID,87.6949,VALID,0,VALID,20.7277,VALID,72,VALID,0.568407,
2005-06-19, 00:40:00,VALID,916.75,VALID,0,VALID,87.9137,VALID,0.0169808,VALID,20.6879,VALID,93,VALID,0.575694,
2005-06-19, 00:41:00,VALID,916.701,VALID,0,VALID,87.8679,VALID,0.0339617,VALID,20.6887,VALID,165,VALID,1.15252,
2005-06-19, 00:42:00,VALID,916.703,VALID,0,VALID,87.9467,VALID,0.0169808,VALID,20.6884,VALID,286,VALID,0.951672,
2005-06-19, 00:43:00,VALID,916.621,VALID,0,VALID,87.9404,VALID,0.0509425,VALID,20.6787,VALID,355,VALID,1.56138,
2005-06-19, 00:44:00,VALID,916.615,VALID,0,VALID,88.1514,VALID,0.0169808,VALID,20.6623,VALID,35,VALID,1.84295,
2005-06-19, 00:45:00,VALID,916.604,VALID,0,VALID,88.2392,VALID,0.0169808,VALID,20.6335,VALID,68,VALID,0.579613,
2005-06-19, 00:46:00,VALID,916.586,VALID,0,VALID,88.2951,VALID,0.0169808,VALID,20.6139,VALID,176,VALID,0.618304,
2005-06-19, 00:47:00,VALID,916.57,VALID,0,VALID,88.4159,VALID,0.0169808,VALID,20.6246,VALID,68,VALID,0.737351,
2005-06-19, 00:48:00,VALID,916.537,VALID,0,VALID,88.6143,VALID,0.0169808,VALID,20.592,VALID,91,VALID,1.27951,
2005-06-19, 00:49:00,VALID,916.534,VALID,0,VALID,88.8902,VALID,0.0339617,VALID,20.5304,VALID,349,VALID,0.74375,
2005-06-19, 00:50:00,VALID,916.517,VALID,0,VALID,89.1255,VALID,0.0169808,VALID,20.5016,VALID,163,VALID,0.42691,
2005-06-19, 00:51:00,VALID,916.47,VALID,0,VALID,89.2565,VALID,0.0169808,VALID,20.4785,VALID,238,VALID,0.8621,
2005-06-19, 00:52:00,VALID,916.438,VALID,0,VALID,89.1662,VALID,0,VALID,20.4758,VALID,117,VALID,0.740039,
2005-06-19, 00:53:00,VALID,916.464,VALID,0,VALID,89.109,VALID,0.0509425,VALID,20.5011,VALID,175,VALID,0.705357,
2005-06-19, 00:54:00,VALID,916.47,VALID,0,VALID,89.0912,VALID,0.0169808,VALID,20.5366,VALID,213,VALID,0.589935,
2005-06-19, 00:55:00,VALID,916.483,VALID,0,VALID,89.0645,VALID,0,VALID,20.5436,VALID,3,VALID,0.348895,
2005-06-19, 00:56:00,VALID,916.5,VALID,0,VALID,89.2959,VALID,0.0169808,VALID,20.5013,VALID,18,VALID,0.963477,
2005-06-19, 00:57:00,VALID,916.511,VALID,0,VALID,89.5362,VALID,0,VALID,20.4628,VALID,287,VALID,0.873476,
2005-06-19, 00:58:00,VALID,916.531,VALID,0,VALID,89.6646,VALID,0,VALID,20.4502,VALID,328,VALID,0.574574,
2005-06-19, 00:59:00,VALID,916.559,VALID,0,VALID,89.8147,VALID,0,VALID,20.4174,VALID,52,VALID,0.439732,
2005-06-19, 01:00:00,VALID,916.567,VALID,0,VALID,90.0016,VALID,0,VALID,20.4055,VALID,35,VALID,0.914807,
2005-06-19, 01:01:00,VALID,916.578,VALID,0,VALID,90.1682,VALID,0,VALID,20.3598,VALID,29,VALID,0.474848,
2005-06-19, 01:02:00,VALID,916.606,VALID,0,VALID,90.3653,VALID,0,VALID,20.3175,VALID,24,VALID,1.01711,
2005-06-19, 01:03:00,VALID,916.636,VALID,0,VALID,90.6145,VALID,-0.0169808,VALID,20.2693,VALID,20,VALID,0.76048,
2005-06-19, 01:04:00,VALID,916.654,VALID,0,VALID,90.8409,VALID,-0.0169808,VALID,20.2206,VALID,17,VALID,1.04082,
2005-06-19, 01:05:00,VALID,916.677,VALID,0,VALID,91.272,VALID,0,VALID,20.1533,VALID,14,VALID,0.898624,
2005-06-19, 01:06:00,VALID,916.646,VALID,0,VALID,91.7806,VALID,0,VALID,20.1016,VALID,17,VALID,0.885356,
2005-06-19, 01:07:00,VALID,916.62,VALID,0,VALID,92.04,VALID,0,VALID,20.0852,VALID,25,VALID,0.828472,
2005-06-19, 01:08:00,VALID,916.598,VALID,0,VALID,92.0807,VALID,-0.0169808,VALID,20.1245,VALID,31,VALID,0.378815,
2005-06-19, 01:09:00,VALID,916.557,VALID,0,VALID,92.0171,VALID,0,VALID,20.1175,VALID,30,VALID,0.306286,
2005-06-19, 01:10:00,VALID,916.53,VALID,0,VALID,92.1481,VALID,0,VALID,20.1237,VALID,18,VALID,0.846989,
2005-06-19, 01:11:00,VALID,916.482,VALID,0,VALID,92.307,VALID,-0.0169808,VALID,20.1039,VALID,22,VALID,1.2152,
2005-06-19, 01:12:00,VALID,916.452,VALID,0,VALID,92.5067,VALID,0,VALID,20.0974,VALID,25,VALID,0.692835,
2005-06-19, 01:13:00,VALID,916.443,VALID,0,VALID,92.6364,VALID,0,VALID,20.1014,VALID,18,VALID,0.702398,
2005-06-19, 01:14:00,VALID,916.411,VALID,0,VALID,92.6974,VALID,0,VALID,20.1108,VALID,353,VALID,0.720656,
2005-06-19, 01:15:00,VALID,916.417,VALID,0,VALID,92.6771,VALID,0.0169808,VALID,20.1237,VALID,266,VALID,0.518429,
2005-06-19, 01:16:00,VALID,916.442,VALID,0,VALID,92.7178,VALID,0,VALID,20.1498,VALID,23,VALID,1.01711,
2005-06-19, 01:17:00,VALID,916.448,VALID,0,VALID,92.7508,VALID,0,VALID,20.1789,VALID,32,VALID,0.79794,
2005-06-19, 01:18:00,VALID,916.456,VALID,0,VALID,92.4342,VALID,0.0169808,VALID,20.2174,VALID,61,VALID,0.536644,
2005-06-19, 01:19:00,VALID,916.452,VALID,0,VALID,92.2714,VALID,-0.0169808,VALID,20.2465,VALID,175,VALID,0.603871,
2005-06-19, 01:20:00,VALID,916.45,VALID,0,VALID,92.2931,VALID,0,VALID,20.2624,VALID,157,VALID,0.721354,
2005-06-19, 01:21:00,VALID,916.47,VALID,0,VALID,92.1862,VALID,-0.0169808,VALID,20.3081,VALID,191,VALID,0.388338,
2005-06-19, 01:22:00,VALID,916.47,VALID,0,VALID,92.2231,VALID,-0.0339617,VALID,20.3272,VALID,96,VALID,0.559896,
2005-06-19, 01:23:00,VALID,916.442,VALID,0,VALID,92.2498,VALID,0,VALID,20.3366,VALID,46,VALID,0.768415,
2005-06-19, 01:24:00,VALID,916.459,VALID,0,VALID,92.218,VALID,0,VALID,20.3657,VALID,310,VALID,0.752131,
2005-06-19, 01:25:00,VALID,916.463,VALID,0,VALID,92.1074,VALID,-0.0169808,VALID,20.3886,VALID,184,VALID,0.678779,
2005-06-19, 01:26:00,VALID,916.468,VALID,0,VALID,92.0693,VALID,0,VALID,20.4017,VALID,66,VALID,0.789621,
2005-06-19, 01:27:00,VALID,916.447,VALID,0,VALID,92.3312,VALID,-0.0339617,VALID,20.4047,VALID,1,VALID,1.5394,
2005-06-19, 01:28:00,VALID,916.458,VALID,0,VALID,92.2664,VALID,0,VALID,20.4246,VALID,35,VALID,1.17932,
2005-06-19, 01:29:00,VALID,916.454,VALID,0,VALID,92.1061,VALID,-0.0169808,VALID,20.4211,VALID,27,VALID,0.745508,
2005-06-19, 01:30:00,VALID,916.458,VALID,0,VALID,92.0273,VALID,0,VALID,20.4397,VALID,356,VALID,1.5293,
2005-06-19, 01:31:00,VALID,916.463,VALID,0,VALID,91.9637,VALID,-0.0169808,VALID,20.48,VALID,339,VALID,1.33185,
2005-06-19, 01:32:00,VALID,916.498,VALID,0,VALID,91.7831,VALID,0,VALID,20.4949,VALID,131,VALID,0.75093,
2005-06-19, 01:33:00,VALID,916.498,VALID,0,VALID,91.6522,VALID,-0.0169808,VALID,20.5175,VALID,147,VALID,0.84032,
2005-06-19, 01:34:00,VALID,916.505,VALID,0,VALID,91.9268,VALID,-0.0169808,VALID,20.5277,VALID,73,VALID,1.61589,
2005-06-19, 01:35:00,VALID,916.509,VALID,0,VALID,92.0413,VALID,-0.0169808,VALID,20.5145,VALID,36,VALID,0.997796,
2005-06-19, 01:36:00,VALID,916.525,VALID,0,VALID,92.2053,VALID,0,VALID,20.5013,VALID,22,VALID,1.44023,
2005-06-19, 01:37:00,VALID,916.503,VALID,0,VALID,92.4202,VALID,0,VALID,20.4653,VALID,359,VALID,1.96413,
2005-06-19, 01:38:00,VALID,916.538,VALID,0,VALID,92.6122,VALID,0,VALID,20.4203,VALID,355,VALID,1.39405,
2005-06-19, 01:39:00,VALID,916.512,VALID,0,VALID,92.8691,VALID,0,VALID,20.4015,VALID,10,VALID,1.92787,
2005-06-19, 01:40:00,VALID,916.54,VALID,0,VALID,93.0522,VALID,0.0169808,VALID,20.356,VALID,7,VALID,2.44386,
2005-06-19, 01:41:00,VALID,916.553,VALID,0,VALID,93.4286,VALID,0,VALID,20.3242,VALID,29,VALID,1.70742,
2005-06-19, 01:42:00,VALID,916.519,VALID,0,VALID,93.688,VALID,-0.0339617,VALID,20.2817,VALID,18,VALID,2.06783,
2005-06-19, 01:43:00,VALID,916.519,VALID,0,VALID,94.1369,VALID,0,VALID,20.2335,VALID,1,VALID,1.3,
2005-06-19, 01:44:00,VALID,916.53,VALID,0,VALID,94.6074,VALID,0.0169808,VALID,20.1908,VALID,17,VALID,0.79524,
2005-06-19, 01:45:00,VALID,916.524,VALID,0,VALID,94.8592,VALID,-0.0169808,VALID,20.1819,VALID,65,VALID,0.557351,
2005-06-19, 01:46:00,VALID,916.521,VALID,0,VALID,94.9533,VALID,0.0509425,VALID,20.1493,VALID,187,VALID,0.755145,
2005-06-19, 01:47:00,VALID,916.53,VALID,0,VALID,95.3182,VALID,0,VALID,20.1098,VALID,69,VALID,1.04766,
2005-06-19, 01:48:00,VALID,916.525,VALID,0,VALID,95.8218,VALID,0,VALID,20.0649,VALID,17,VALID,1.85085,
2005-06-19, 01:49:00,VALID,916.518,VALID,0,VALID,96.3037,VALID,0,VALID,20.0231,VALID,16,VALID,1.13663,
2005-06-19, 01:50:00,VALID,916.545,VALID,0,VALID,96.5873,VALID,-0.0169808,VALID,19.9919,VALID,15,VALID,0.776953,
2005-06-19, 01:51:00,VALID,916.53,VALID,0,VALID,96.7208,VALID,0,VALID,19.9461,VALID,84,VALID,0.87407,
2005-06-19, 01:52:00,VALID,916.54,VALID,0,VALID,96.9738,VALID,0,VALID,19.9201,VALID,6,VALID,1.06268,
2005-06-19, 01:53:00,VALID,916.555,VALID,0,VALID,97.293,VALID,0,VALID,19.8907,VALID,2,VALID,0.808966,
2005-06-19, 01:54:00,VALID,916.538,VALID,0,VALID,97.555,VALID,0,VALID,19.8649,VALID,13,VALID,0.956174,
2005-06-19, 01:55:00,VALID,916.526,VALID,0,VALID,97.8474,VALID,0,VALID,19.852,VALID,13,VALID,0.789253,
2005-06-19, 01:56:00,VALID,916.536,VALID,0,VALID,97.9949,VALID,-0.0169808,VALID,19.8296,VALID,29,VALID,1.11428,
2005-06-19, 01:57:00,VALID,916.539,VALID,0.2,VALID,98.2989,VALID,-0.0169808,VALID,19.8036,VALID,39,VALID,0.800595,
2005-06-19, 01:58:00,VALID,916.518,VALID,0,VALID,98.5023,VALID,0,VALID,19.8105,VALID,13,VALID,1.19851,
2005-06-19, 01:59:00,VALID,916.487,VALID,0,VALID,98.6409,VALID,0,VALID,19.7715,VALID,336,VALID,1.30433,
2005-06-19, 02:00:00,VALID,916.513,VALID,0,VALID,98.7821,VALID,0,VALID,19.729,VALID,342,VALID,0.898615,
2005-06-19, 02:01:00,VALID,916.511,VALID,0.2,VALID,98.9219,VALID,-0.0509425,VALID,19.7045,VALID,32,VALID,1.56771,
2005-06-19, 02:02:00,VALID,916.497,VALID,0,VALID,99.1991,VALID,-0.0849042,VALID,19.6987,VALID,22,VALID,1.07924,
2005-06-19, 02:03:00,VALID,916.478,VALID,0,VALID,99.2347,VALID,-0.0849042,VALID,19.6796,VALID,358,VALID,0.765253,
2005-06-19, 02:04:00,VALID,916.467,VALID,0,VALID,99.203,VALID,-0.101885,VALID,19.6309,VALID,335,VALID,0.483681,
2005-06-19, 02:05:00,VALID,916.491,VALID,0,VALID,99.2983,VALID,-0.101885,VALID,19.6116,VALID,22,VALID,1.10429,
2005-06-19, 02:06:00,VALID,916.498,VALID,0,VALID,99.5107,VALID,-0.101885,VALID,19.6021,VALID,330,VALID,1.22329,
2005-06-19, 02:07:00,VALID,916.487,VALID,0,VALID,99.4992,VALID,-0.101885,VALID,19.5336,VALID,8,VALID,1.47694,
2005-06-19, 02:08:00,VALID,916.484,VALID,0,VALID,99.7548,VALID,-0.0849042,VALID,19.5274,VALID,29,VALID,0.897773,
2005-06-19, 02:09:00,VALID,916.439,VALID,0,VALID,99.9613,VALID,-0.101885,VALID,19.5378,VALID,9,VALID,1.14134,
2005-06-19, 02:10:00,VALID,916.418,VALID,0,VALID,100,VALID,-0.101885,VALID,19.5279,VALID,21,VALID,1.98419,
2005-06-19, 02:11:00,VALID,916.42,VALID,0.2,VALID,100,VALID,-0.0679233,VALID,19.4951,VALID,63,VALID,0.990585,
2005-06-19, 02:12:00,VALID,916.387,VALID,0,VALID,100,VALID,-0.101885,VALID,19.473,VALID,74,VALID,1.09549,
2005-06-19, 02:13:00,VALID,916.386,VALID,0,VALID,100,VALID,-0.101885,VALID,19.4434,VALID,31,VALID,1.62191,
2005-06-19, 02:14:00,VALID,916.386,VALID,0,VALID,100,VALID,-0.0849042,VALID,19.4466,VALID,18,VALID,1.31957,
2005-06-19, 02:15:00,VALID,916.357,VALID,0,VALID,100,VALID,-0.0849042,VALID,19.4245,VALID,359,VALID,1.47443,
2005-06-19, 02:16:00,VALID,916.351,VALID,0,VALID,100,VALID,-0.0849042,VALID,19.4084,VALID,29,VALID,2.08703,
2005-06-19, 02:17:00,VALID,916.389,VALID,0,VALID,100,VALID,-0.101885,VALID,19.4091,VALID,5,VALID,1.02841,
2005-06-19, 02:18:00,VALID,916.374,VALID,0,VALID,100,VALID,-0.118866,VALID,19.4054,VALID,13,VALID,1.12483,
2005-06-19, 02:19:00,VALID,916.34,VALID,0,VALID,100,VALID,-0.101885,VALID,19.4183,VALID,21,VALID,1.3843,
2005-06-19, 02:20:00,VALID,916.298,VALID,0,VALID,100,VALID,-0.101885,VALID,19.4086,VALID,22,VALID,1.8936,
2005-06-19, 02:21:00,VALID,916.284,VALID,0,VALID,100,VALID,-0.101885,VALID,19.4019,VALID,15,VALID,1.00545,
2005-06-19, 02:22:00,VALID,916.253,VALID,0.2,VALID,100,VALID,-0.0849042,VALID,19.4054,VALID,335,VALID,0.694586,
2005-06-19, 02:23:00,VALID,916.227,VALID,0,VALID,100,VALID,-0.101885,VALID,19.3731,VALID,19,VALID,1.63672,
2005-06-19, 02:24:00,VALID,916.211,VALID,0,VALID,100,VALID,-0.101885,VALID,19.3507,VALID,346,VALID,1.06676,
2005-06-19, 02:25:00,VALID,916.176,VALID,0,VALID,100,VALID,-0.101885,VALID,19.3376,VALID,8,VALID,0.87832,
2005-06-19, 02:26:00,VALID,916.143,VALID,0,VALID,100,VALID,-0.0849042,VALID,19.3572,VALID,9,VALID,0.387355,
2005-06-19, 02:27:00,VALID,916.099,VALID,0,VALID,100,VALID,-0.0849042,VALID,19.3567,VALID,19,VALID,0.786014,
2005-06-19, 02:28:00,VALID,916.069,VALID,0,VALID,100,VALID,-0.0849042,VALID,19.3696,VALID,23,VALID,0.954397,
2005-06-19, 02:29:00,VALID,916.078,VALID,0,VALID,100,VALID,-0.101885,VALID,19.3801,VALID,19,VALID,0.638363,
2005-06-19, 02:30:00,VALID,916.074,VALID,0,VALID,100,VALID,-0.101885,VALID,19.3833,VALID,24,VALID,0.149891,
2005-06-19, 02:31:00,VALID,916.08,VALID,0.2,VALID,100,VALID,-0.101885,VALID,19.3662,VALID,54,VALID,0.22202,
2005-06-19, 02:32:00,VALID,916.069,VALID,0,VALID,100,VALID,-0.0849042,VALID,19.3766,VALID,91,VALID,0.141242,
2005-06-19, 02:33:00,VALID,916.069,VALID,0,VALID,100,VALID,-0.101885,VALID,19.3835,VALID,69,VALID,0.635352,
2005-06-19, 02:34:00,VALID,916.082,VALID,0,VALID,100,VALID,-0.118866,VALID,19.3835,VALID,50,VALID,0.196766,
2005-06-19, 02:35:00,VALID,916.095,VALID,0.2,VALID,100,VALID,-0.135847,VALID,19.3895,VALID,61,VALID,0.284339,
2005-06-19, 02:36:00,VALID,916.11,VALID,0,VALID,100,VALID,-0.101885,VALID,19.3865,VALID,202,VALID,0.452431,
2005-06-19, 02:37:00,VALID,916.097,VALID,0,VALID,100,VALID,-0.101885,VALID,19.3865,VALID,219,VALID,0.275981,
2005-06-19, 02:38:00,VALID,916.098,VALID,0,VALID,100,VALID,-0.101885,VALID,19.393,VALID,199,VALID,0.215426,
2005-06-19, 02:39:00,VALID,916.082,VALID,0,VALID,100,VALID,-0.118866,VALID,19.3895,VALID,199,VALID,0.292492,
2005-06-19, 02:40:00,VALID,916.041,VALID,0,VALID,100,VALID,-0.0849042,VALID,19.4027,VALID,199,VALID,0.0923611,
2005-06-19, 02:41:00,VALID,916.022,VALID,0,VALID,100,VALID,-0.101885,VALID,19.4091,VALID,184,VALID,0.26684,
2005-06-19, 02:42:00,VALID,915.967,VALID,0,VALID,100,VALID,-0.101885,VALID,19.4059,VALID,184,VALID,0.280342,
2005-06-19, 02:43:00,VALID,915.94,VALID,0,VALID,100,VALID,-0.101885,VALID,19.4061,VALID,184,VALID,0.213715,
2005-06-19, 02:44:00,VALID,915.921,VALID,0,VALID,100,VALID,-0.101885,VALID,19.426,VALID,184,VALID,0.226563,
2005-06-19, 02:45:00,VALID,915.896,VALID,0,VALID,100,VALID,-0.101885,VALID,19.4409,VALID,184,VALID,0.0643169,
2005-06-19, 02:46:00,VALID,915.88,VALID,0,VALID,100,VALID,-0.0509425,VALID,19.4437,VALID,184,VALID,0.161855,
2005-06-19, 02:47:00,VALID,915.837,VALID,0,VALID,100,VALID,0,VALID,19.4332,VALID,179,VALID,0.33939,
2005-06-19, 02:48:00,VALID,915.824,VALID,0,VALID,100,VALID,0,VALID,19.4298,VALID,45,VALID,0.534091,
2005-06-19, 02:49:00,VALID,915.833,VALID,0,VALID,100,VALID,0,VALID,19.4429,VALID,27,VALID,0.0234375,
2005-06-19, 02:50:00,VALID,915.816,VALID,0,VALID,100,VALID,0.0169808,VALID,19.4461,VALID,27,VALID,0.0367006,
2005-06-19, 02:51:00,VALID,915.79,VALID,0,VALID,100,VALID,0,VALID,19.4655,VALID,27,VALID,0.26582,
2005-06-19, 02:52:00,VALID,915.776,VALID,0,VALID,100,VALID,0,VALID,19.4685,VALID,27,VALID,0.422061,
2005-06-19, 02:53:00,VALID,915.766,VALID,0,VALID,100,VALID,0.0509425,VALID,19.4688,VALID,27,VALID,0.502717,
2005-06-19, 02:54:00,VALID,915.748,VALID,0,VALID,100,VALID,0,VALID,19.4655,VALID,19,VALID,0.621875,
2005-06-19, 02:55:00,VALID,915.731,VALID,0,VALID,100,VALID,0,VALID,19.4784,VALID,27,VALID,0.768111,
2005-06-19, 02:56:00,VALID,915.725,VALID,0,VALID,100,VALID,0.0169808,VALID,19.462,VALID,43,VALID,0.571075,
2005-06-19, 02:57:00,VALID,915.727,VALID,0,VALID,100,VALID,0.0169808,VALID,19.4653,VALID,47,VALID,0.158249,
2005-06-19, 02:58:00,VALID,915.719,VALID,0,VALID,100,VALID,0,VALID,19.469,VALID,47,VALID,0.503729,
2005-06-19, 02:59:00,VALID,915.715,VALID,0,VALID,100,VALID,0.0169808,VALID,19.4655,VALID,31,VALID,0.452753,
2005-06-19, 03:00:00,VALID,915.696,VALID,0,VALID,100,VALID,0,VALID,19.4593,VALID,23,VALID,0.187314,
2005-06-19, 03:01:00,VALID,915.679,VALID,0,VALID,100,VALID,-0.0679233,VALID,19.4434,VALID,23,VALID,0,
2005-06-19, 03:02:00,VALID,915.65,VALID,0,VALID,100,VALID,-0.118866,VALID,19.4374,VALID,23,VALID,0.511523,
2005-06-19, 03:03:00,VALID,915.628,VALID,0,VALID,100,VALID,-0.0849042,VALID,19.4471,VALID,23,VALID,0.676525,
2005-06-19, 03:04:00,VALID,915.638,VALID,0,VALID,100,VALID,-0.101885,VALID,19.4476,VALID,23,VALID,0.616071,
2005-06-19, 03:05:00,VALID,915.637,VALID,0,VALID,100,VALID,-0.0679233,VALID,19.4476,VALID,23,VALID,0.340199,
2005-06-19, 03:06:00,VALID,915.634,VALID,0,VALID,100,VALID,-0.0679233,VALID,19.4732,VALID,23,VALID,0.0205305,
2005-06-19, 03:07:00,VALID,915.613,VALID,0,VALID,100,VALID,-0.0849042,VALID,19.4802,VALID,23,VALID,0.000390625,
2005-06-19, 03:08:00,VALID,915.609,VALID,0,VALID,100,VALID,-0.0679233,VALID,19.4998,VALID,38,VALID,0.480273,
2005-06-19, 03:09:00,VALID,915.615,VALID,0,VALID,100,VALID,-0.0679233,VALID,19.5057,VALID,31,VALID,0.472461,
2005-06-19, 03:10:00,VALID,915.623,VALID,0,VALID,100,VALID,-0.0679233,VALID,19.5187,VALID,31,VALID,0.196584,
2005-06-19, 03:11:00,VALID,915.636,VALID,0,VALID,100,VALID,-0.0849042,VALID,19.5348,VALID,31,VALID,0.190589,
2005-06-19, 03:12:00,VALID,915.642,VALID,0,VALID,100,VALID,-0.0679233,VALID,19.5408,VALID,31,VALID,0.0617188,
2005-06-19, 03:13:00,VALID,915.65,VALID,0,VALID,100,VALID,-0.101885,VALID,19.5283,VALID,29,VALID,0.30814,
2005-06-19, 03:14:00,VALID,915.665,VALID,0,VALID,100,VALID,-0.0679233,VALID,19.5413,VALID,29,VALID,0.408296,
2005-06-19, 03:15:00,VALID,915.683,VALID,0,VALID,100,VALID,-0.0679233,VALID,19.5509,VALID,6,VALID,0.228819,
2005-06-19, 03:16:00,VALID,915.693,VALID,0,VALID,100,VALID,-0.0849042,VALID,19.5343,VALID,4,VALID,0,
2005-06-19, 03:17:00,VALID,915.689,VALID,0,VALID,100,VALID,-0.0509425,VALID,19.5477,VALID,4,VALID,0.318677,
2005-06-19, 03:18:00,VALID,915.694,VALID,0,VALID,100,VALID,-0.0509425,VALID,19.5701,VALID,4,VALID,0.310014,
2005-06-19, 03:19:00,VALID,915.684,VALID,0,VALID,100,VALID,-0.101885,VALID,19.5668,VALID,3,VALID,0.544618,
2005-06-19, 03:20:00,VALID,915.674,VALID,0,VALID,100,VALID,-0.0849042,VALID,19.5733,VALID,2,VALID,0.525856,
2005-06-19, 03:21:00,VALID,915.666,VALID,0,VALID,100,VALID,-0.101885,VALID,19.5765,VALID,2,VALID,0.454578,
2005-06-19, 03:22:00,VALID,915.659,VALID,0,VALID,100,VALID,-0.0849042,VALID,19.5798,VALID,359,VALID,0.5712,
2005-06-19, 03:23:00,VALID,915.649,VALID,0,VALID,100,VALID,-0.101885,VALID,19.5668,VALID,5,VALID,0.747997,
2005-06-19, 03:24:00,VALID,915.663,VALID,0,VALID,100,VALID,-0.101885,VALID,19.5768,VALID,24,VALID,0.77439,
2005-06-19, 03:25:00,VALID,915.669,VALID,0,VALID,100,VALID,-0.101885,VALID,19.5934,VALID,16,VALID,0.750744,
2005-06-19, 03:26:00,VALID,915.679,VALID,0,VALID,100,VALID,-0.0849042,VALID,19.5832,VALID,10,VALID,0.668605,
2005-06-19, 03:27:00,VALID,915.677,VALID,0,VALID,100,VALID,-0.0849042,VALID,19.5862,VALID,10,VALID,0.57641,
2005-06-19, 03:28:00,VALID,915.657,VALID,0,VALID,100,VALID,-0.0849042,VALID,19.5904,VALID,11,VALID,0.587573,
2005-06-19, 03:29:00,VALID,915.632,VALID,0,VALID,100,VALID,-0.101885,VALID,19.5862,VALID,12,VALID,0.518285,
2005-06-19, 03:30:00,VALID,915.579,VALID,0,VALID,100,VALID,-0.101885,VALID,19.5962,VALID,15,VALID,0.530705,
2005-06-19, 03:31:00,VALID,915.554,VALID,0,VALID,100,VALID,-0.0509425,VALID,19.5957,VALID,24,VALID,0.493459,
2005-06-19, 03:32:00,VALID,915.523,VALID,0,VALID,100,VALID,0,VALID,19.5986,VALID,26,VALID,0.681402,
2005-06-19, 03:33:00,VALID,915.493,VALID,0,VALID,100,VALID,0,VALID,19.5823,VALID,38,VALID,1.10361,
2005-06-19, 03:34:00,VALID,915.473,VALID,0,VALID,100,VALID,0.0169808,VALID,19.5818,VALID,32,VALID,0.994234,
2005-06-19, 03:35:00,VALID,915.476,VALID,0,VALID,100,VALID,0,VALID,19.582,VALID,20,VALID,0.995458,
2005-06-19, 03:36:00,VALID,915.452,VALID,0,VALID,100,VALID,0,VALID,19.5559,VALID,27,VALID,1.02592,
2005-06-19, 03:37:00,VALID,915.447,VALID,0,VALID,100,VALID,-0.0169808,VALID,19.543,VALID,33,VALID,0.739757,
2005-06-19, 03:38:00,VALID,915.455,VALID,0,VALID,100,VALID,0.0509425,VALID,19.5333,VALID,40,VALID,0.860102,